[[{"header":{"parameterUnit":"m.s-1","parameterCategory":2,"la1":30.2991,"la2":30.254,"lo1":-89.0895,"lo2":-89.0444,"dy":0.0017,"dx":0.0017,"nx":28,"ny":28,"refTime":"2024-05-21T03:00:00:Z","depth":"0","parameterNumber":2,"parameterNumberName":"U-component_of_CURRENTS"},"data":[0,0,0,0,0,0,0,0,0,0,0,0,0,0,0,0,0,0,0,0,0,0,0,0,0,0,0,0,0,0,0,0,0,0,0,0,0,0,0,0,0,0,0,0,0,0,0,0,0,0,0,0,0,0,0,0,0,0,0.2444,0.2444,0,0.2468,0.2469,0.2469,0.2446,0.2445,0.2444,0.2443,0.2518,0.2521,0.2524,0,0,0,0,0,0,0,0,0,0,0,0,0,0.2445,0.2445,0.2444,0.2444,0.2444,0.2468,0.2469,0.2469,0.2446,0.2445,0.2444,0.2443,0.2517,0.252,0.2524,0,0,0,0,0,0,0,0,0,0,0,0,0,0.2455,0.2445,0.2444,0.2436,0.2435,0.2468,0.2469,0.2469,0.2446,0.2445,0.2444,0.2442,0.2516,0.252,0.2524,0.2579,0,0,0.2537,0.2539,0,0,0,0,0,0,0,0,0.2454,0.2455,0.2437,0.2436,0.2436,0.2453,0.2497,0.2508,0.2447,0.2442,0.2443,0.2442,0.2502,0.2507,0.2514,0.2582,0.2586,0.2538,0.254,0.2542,0.2543,0,0,0,0,0,0,0,0.2454,0.2454,0.2454,0.2437,0.2437,0.2454,0.2453,0.2499,0.2481,0.2443,0.2441,0.2444,0.2502,0.251,0.2516,0.2587,0.2538,0.2541,0.2544,0.2546,0.2682,0.2683,0,0,0,0,0,0,0.2448,0.2453,0.2453,0.2454,0.2442,0.2455,0.2454,0.2449,0.2479,0.2482,0.2445,0.2443,0.2504,0.2511,0.2519,0.2573,0.2542,0.2546,0.2549,0.2681,0.2683,0.2684,0,0,0,0,0,0,0.2448,0.2448,0.2452,0.2455,0.2456,0.2456,0.2451,0.245,0.2455,0.248,0.2484,0.245,0.2503,0.2513,0.2548,0.2576,0.2548,0.2552,0.268,0.2682,0.2683,0.269,0,0,0,0,0,0,0.2448,0.2447,0.2453,0.2454,0.2456,0.2479,0.2452,0.2451,0.2459,0.2456,0.2486,0.2491,0.2502,0.2541,0.2552,0.2581,0.2555,0.2679,0.2681,0.2683,0.2688,0.2692,0.2694,0,0,0,0,0,0.2448,0.2469,0.2453,0.2454,0.246,0.248,0.2483,0.2479,0.2461,0.2475,0.248,0.249,0.2562,0.2546,0.2558,0.2589,0.2678,0.268,0.2683,0.2687,0.2691,0.2694,0,0,0,0,0,0,0.2478,0.2469,0.2451,0.2468,0.2472,0.2476,0.25,0.2484,0.2499,0.2497,0.2505,0.2512,0.2557,0.2573,0.2555,0.2634,0.2623,0.2628,0.2622,0.2626,0.2629,0.2624,0.2559,0,0,0,0,0,0.2485,0.2497,0.2485,0.2503,0.2507,0.25,0.251,0.25,0.2509,0.2513,0.2522,0.2544,0.258,0.2599,0.2632,0.2679,0.2717,0.2707,0.271,0.2713,0.2717,0.2777,0.2786,0.2692,0.2692,0.2692,0,0,0.2503,0.2501,0.2508,0.251,0.2517,0.2534,0.2504,0.2523,0.2531,0.2524,0.2546,0.2561,0.2595,0.2639,0.2661,0.2653,0.2767,0.2716,0.2717,0.2721,0.2781,0.279,0.2798,0.2693,0.2693,0.2693,0,0,0.2556,0.2543,0.2571,0.2578,0.2585,0.2573,0.2576,0.2571,0.2565,0.2587,0.2582,0.2601,0.2656,0.2671,0.2692,0.2736,0.2782,0.2755,0.2768,0.2826,0.2834,0.2842,0.2934,0.2949,0.2754,0.2755,0.2755,0,0.258,0.2597,0.2586,0.2617,0.2622,0.2589,0.2613,0.2613,0.2613,0.2618,0.2599,0.2663,0.2672,0.2732,0.2727,0.2743,0.2796,0.2749,0.283,0.2838,0.2846,0.2938,0.2955,0.2755,0.2755,0.2755,0.2755,0,0.2648,0.2661,0.2686,0.2696,0.2705,0.2723,0.2706,0.2708,0.2686,0.268,0.272,0.2725,0.2768,0.2766,0.2755,0.2817,0.2848,0.2828,0.2818,0.2855,0.2951,0.2968,0.2756,0.2756,0.2756,0.2755,0,0,0.2678,0.2722,0.2724,0.273,0.2739,0.2743,0.2767,0.277,0.279,0.2781,0.2828,0.2833,0.2831,0.2852,0.2848,0.2865,0.2951,0.2861,0.2864,0.2949,0.3121,0.3052,0.3066,0.2949,0.2951,0.2953,0.3177,0,0.2723,0.2776,0.2789,0.2821,0.2831,0.2821,0.2848,0.285,0.285,0.2891,0.2889,0.294,0.2871,0.2903,0.291,0.2959,0.2994,0.2895,0.3075,0.3081,0.3011,0.3081,0.2897,0.3072,0.3194,0.3197,0.3199,0,0.2759,0.2785,0.2829,0.2854,0.2862,0.2883,0.29,0.2926,0.2976,0.2993,0.3032,0.3052,0.3106,0.3031,0.313,0.3078,0.3097,0.3108,0.3117,0.3058,0.3043,0.3049,0.3099,0.3013,0.3227,0.3225,0.3223,0,0.2737,0.2794,0.2818,0.2831,0.2873,0.2893,0.2912,0.2952,0.2983,0.3075,0.3127,0.3193,0.3245,0.3283,0.3285,0.3239,0.339,0.3347,0.3308,0.3307,0.3186,0.3167,0.3162,0.3406,0.3406,0.3405,0.3404,0,0.2745,0.2762,0.2811,0.2825,0.2856,0.2893,0.2939,0.2977,0.3065,0.3117,0.3184,0.3245,0.33,0.3376,0.3375,0.3411,0.3483,0.3335,0.3356,0.3185,0.3165,0.311,0.3064,0.3413,0.3412,0.341,0.3408,0,0.271,0.2749,0.2777,0.2832,0.2845,0.2867,0.2941,0.2983,0.3077,0.3165,0.321,0.3326,0.3438,0.3492,0.3579,0.3524,0.3465,0.355,0.3359,0.3349,0.32,0.3162,0.3108,0.3021,0.3584,0.3584,0.3583,0,0.2699,0.2713,0.2764,0.2781,0.2807,0.2848,0.288,0.297,0.3019,0.3186,0.3231,0.3386,0.3445,0.3588,0.3549,0.3606,0.3471,0.3442,0.3283,0.3185,0.316,0.3043,0.2965,0.3163,0.3159,0.3156,0.3153,0,0.2678,0.2699,0.2726,0.2752,0.2782,0.2812,0.2867,0.2907,0.3023,0.3099,0.3212,0.3292,0.3421,0.3382,0.3441,0.3427,0.3257,0.3379,0.3321,0.2864,0.2694,0.2621,0.3062,0.3126,0.3129,0.3131,0.3132,0.3133,0.2659,0.2665,0.2698,0.2709,0.2743,0.2761,0.2751,0.2821,0.2878,0.2956,0.3105,0.3149,0.3192,0.3243,0.3216,0.3056,0.3078,0.2931,0.2917,0.283,0.2635,0.3025,0.3063,0.3066,0.3068,0.3069,0.3071,0,0.2615,0.2627,0.2648,0.2653,0.2647,0.2687,0.272,0.2691,0.2697,0.2804,0.287,0.288,0.2842,0.2853,0.2746,0.261,0.2471,0.2537,0.2324,0.2289,0.2684,0.2549,0.242,0.242,0.2421,0.2421,0.2421,0.2421,0.2598,0.2589,0.2585,0.2543,0.2543,0.2487,0.2477,0.2454,0.2487,0.2462,0.2443,0.2505,0.258,0.2524,0.2367,0.2298,0.2117,0.1989,0.2047,0.2309,0.2343,0.2376,0.2238,0.2047,0.2047,0.1519,0.1515,0.1512]},{"header":{"parameterUnit":"m.s-1","parameterCategory":2,"la1":30.2991,"la2":30.254,"lo1":-89.0895,"lo2":-89.0444,"dy":0.0017,"dx":0.0017,"nx":28,"ny":28,"refTime":"2024-05-21T03:00:00:Z","depth":"0","parameterNumber":3,"parameterNumberName":"V-component_of_CURRENTS"},"data":[0,0,0,0,0,0,0,0,0,0,0,0,0,0,0,0,0,0,0,0,0,0,0,0,0,0,0,0,0,0,0,0,0,0,0,0,0,0,0,0,0,0,0,0,0,0,0,0,0,0,0,0,0,0,0,0,0,0,0.0239,0.0239,0,0.0223,0.0223,0.0223,0.0194,0.0194,0.0194,0.0193,0.015,0.0149,0.0148,0,0,0,0,0,0,0,0,0,0,0,0,0,0.0219,0.0219,0.0239,0.0239,0.0239,0.0223,0.0223,0.0223,0.0194,0.0194,0.0194,0.0193,0.015,0.0149,0.0148,0,0,0,0,0,0,0,0,0,0,0,0,0,0.0216,0.022,0.0239,0.0224,0.0223,0.0223,0.0223,0.0222,0.0195,0.0194,0.0193,0.0193,0.015,0.0149,0.0148,0.0152,0,0,0.0144,0.0144,0,0,0,0,0,0,0,0,0.0217,0.0217,0.0226,0.0225,0.0224,0.0212,0.02,0.0198,0.0195,0.0203,0.0193,0.0193,0.0169,0.0167,0.0163,0.015,0.0148,0.0144,0.0143,0.0143,0.0143,0,0,0,0,0,0,0,0.0217,0.0217,0.0231,0.0226,0.0225,0.021,0.0209,0.0199,0.0188,0.0203,0.0201,0.0202,0.0168,0.0164,0.0162,0.0148,0.0144,0.0143,0.0142,0.0142,0.0132,0.0132,0,0,0,0,0,0,0.0224,0.0218,0.0231,0.0231,0.022,0.0211,0.021,0.0215,0.0189,0.0185,0.0203,0.0201,0.0166,0.0163,0.016,0.0174,0.0143,0.0142,0.0141,0.0131,0.0132,0.0132,0,0,0,0,0,0,0.0224,0.0226,0.0232,0.0225,0.0225,0.0212,0.0218,0.0215,0.0213,0.0189,0.0184,0.0204,0.0166,0.0162,0.0159,0.0172,0.0141,0.014,0.0131,0.0132,0.0132,0.0195,0,0,0,0,0,0,0.0224,0.0226,0.023,0.0226,0.0225,0.0241,0.0218,0.0215,0.0215,0.0213,0.0189,0.0184,0.0165,0.0161,0.0158,0.0169,0.0139,0.013,0.0131,0.0132,0.0192,0.0198,0.0202,0,0,0,0,0,0.0223,0.0236,0.023,0.0232,0.0233,0.0242,0.0241,0.0228,0.0216,0.0222,0.0206,0.0185,0.0163,0.0161,0.0157,0.0168,0.013,0.0131,0.0132,0.019,0.0197,0.0202,0,0,0,0,0,0,0.0226,0.0234,0.0228,0.0241,0.0245,0.0238,0.0242,0.0234,0.0226,0.0222,0.0195,0.019,0.0189,0.0171,0.0168,0.0166,0.0142,0.0142,0.0187,0.0193,0.0198,0.0216,0.0138,0,0,0,0,0,0.0231,0.0244,0.0246,0.0256,0.026,0.0251,0.0252,0.0247,0.0241,0.0236,0.0219,0.0201,0.0191,0.0186,0.0172,0.0177,0.0165,0.0179,0.0184,0.0189,0.02,0.0196,0.0203,0.0136,0.0136,0.0136,0,0,0.0235,0.0241,0.0247,0.0258,0.0257,0.0274,0.025,0.0259,0.0274,0.0233,0.0241,0.0218,0.0195,0.0197,0.0196,0.0185,0.0201,0.019,0.0194,0.0203,0.0198,0.0205,0.0211,0.0137,0.0136,0.0136,0,0,0.026,0.0256,0.028,0.0286,0.0294,0.0291,0.0298,0.0295,0.0294,0.0302,0.0273,0.026,0.0247,0.0233,0.0224,0.0249,0.0226,0.0241,0.0285,0.0281,0.0287,0.0292,0.0288,0.0292,0.0246,0.0246,0.0246,0,0.0266,0.0297,0.0287,0.0312,0.0325,0.0304,0.0335,0.0331,0.0327,0.0335,0.0313,0.0295,0.0265,0.0276,0.0278,0.0261,0.0257,0.0266,0.029,0.0294,0.0298,0.0292,0.0296,0.0249,0.0249,0.0248,0.0248,0,0.0312,0.0334,0.0349,0.0375,0.0384,0.0407,0.0405,0.0411,0.0402,0.0398,0.0404,0.0366,0.036,0.0341,0.0316,0.0331,0.0318,0.0296,0.0278,0.0309,0.03,0.0303,0.0254,0.0253,0.0252,0.0251,0,0,0.0342,0.0376,0.0384,0.0412,0.0423,0.0443,0.0462,0.0485,0.0517,0.0486,0.0529,0.0479,0.0457,0.0446,0.041,0.0396,0.0407,0.0362,0.0361,0.0366,0.0406,0.0388,0.0389,0.0393,0.0394,0.0394,0.039,0,0.0387,0.0451,0.0453,0.0513,0.0548,0.0537,0.0568,0.0579,0.0581,0.0612,0.0567,0.0588,0.05,0.0512,0.0479,0.0438,0.0417,0.041,0.0369,0.0368,0.0354,0.0392,0.0375,0.0369,0.0392,0.0393,0.0393,0,0.0441,0.0479,0.0549,0.0604,0.062,0.065,0.0704,0.0729,0.0748,0.0755,0.0746,0.072,0.0699,0.0627,0.0553,0.0557,0.0486,0.0436,0.0434,0.04,0.0355,0.034,0.0373,0.0264,0.0397,0.0396,0.0396,0,0.049,0.0551,0.0613,0.0629,0.0682,0.0718,0.0747,0.0775,0.0826,0.0857,0.0906,0.0853,0.0862,0.0764,0.0645,0.0611,0.0572,0.0512,0.0422,0.042,0.0388,0.0382,0.0318,0.0458,0.0458,0.0458,0.0458,0,0.0546,0.0599,0.0645,0.0684,0.077,0.0783,0.0878,0.0897,0.0962,0.1048,0.0991,0.1054,0.0898,0.0853,0.0713,0.0592,0.0623,0.0445,0.0424,0.0409,0.0405,0.0294,0.0211,0.0458,0.0458,0.0458,0.0458,0,0.0597,0.0623,0.0705,0.0773,0.0799,0.0866,0.0967,0.1042,0.1088,0.1207,0.1233,0.1221,0.1162,0.1001,0.0859,0.0701,0.0503,0.0519,0.0512,0.049,0.0281,0.0202,0.0113,0.0058,0.0418,0.0417,0.0417,0,0.063,0.0677,0.0771,0.0828,0.0866,0.0961,0.1036,0.11,0.1191,0.1318,0.1393,0.1378,0.1385,0.117,0.0892,0.0659,0.052,0.0481,0.0394,0.0285,0.0181,0.0134,0.009,0.0375,0.0374,0.0373,0.0373,0,0.0699,0.0732,0.0799,0.0908,0.0997,0.1103,0.1216,0.1305,0.1407,0.1517,0.1648,0.1671,0.1467,0.1221,0.089,0.0717,0.0392,0.0462,0.0353,0.0152,0.0092,0.0025,0.0362,0.0368,0.0369,0.0369,0.0369,0.037,0.0752,0.0808,0.0891,0.0993,0.11,0.1231,0.1324,0.1459,0.1615,0.1783,0.1808,0.1855,0.1506,0.1051,0.0816,0.0363,0.035,0.0204,0.0122,0.0089,0.0021,0.0351,0.0329,0.0329,0.0329,0.0329,0.033,0,0.0807,0.0865,0.0967,0.1094,0.121,0.1255,0.1435,0.1538,0.172,0.1874,0.198,0.1813,0.1397,0.0973,0.0349,0.0064,-0.0034,-0.0077,-0.0156,-0.0183,0.0118,0.0101,0.0025,0.0025,0.0025,0.0025,0.0025,0.0025,0.0842,0.093,0.0972,0.1151,0.1246,0.14,0.1498,0.1661,0.1793,0.1945,0.1957,0.1944,0.1602,0.0574,-0.0094,-0.0236,-0.04,-0.045,-0.0523,-0.0335,-0.0315,-0.0296,-0.0329,-0.0494,-0.0495,-0.0783,-0.0786,-0.0789]}],[{"header":{"parameterUnit":"m.s-1","parameterCategory":2,"la1":30.2991,"la2":30.254,"lo1":-89.0895,"lo2":-89.0444,"dy":0.0017,"dx":0.0017,"nx":28,"ny":28,"refTime":"2024-05-21T03:00:00:Z","depth":"2","parameterNumber":2,"parameterNumberName":"U-component_of_CURRENTS"},"data":[0,0,0,0,0,0,0,0,0,0,0,0,0,0,0,0,0,0,0,0,0,0,0,0,0,0,0,0,0,0,0,0,0,0,0,0,0,0,0,0,0,0,0,0,0,0,0,0,0,0,0,0,0,0,0,0,0,0,0.2209,0.221,0,0.2238,0.2238,0.2238,0.2235,0.2234,0.2234,0.2234,0.2267,0.2268,0.2269,0,0,0,0,0,0,0,0,0,0,0,0,0,0.2198,0.2198,0.2209,0.221,0.221,0.2238,0.2238,0.2238,0.2235,0.2234,0.2234,0.2233,0.2266,0.2268,0.2269,0,0,0,0,0,0,0,0,0,0,0,0,0,0.2212,0.2198,0.2209,0.2212,0.2213,0.2238,0.2238,0.2239,0.2235,0.2234,0.2234,0.2233,0.2266,0.2268,0.227,0.2294,0,0,0.2275,0.2276,0,0,0,0,0,0,0,0,0.2211,0.2212,0.2211,0.2212,0.2213,0.2233,0.2246,0.2258,0.2235,0.2226,0.2234,0.2233,0.2257,0.2259,0.2265,0.2296,0.2297,0.2276,0.2277,0.2278,0.2278,0,0,0,0,0,0,0,0.221,0.2211,0.222,0.2212,0.2213,0.2228,0.2228,0.2249,0.2244,0.2227,0.2227,0.2231,0.2257,0.2263,0.2266,0.2298,0.2276,0.2277,0.2278,0.2279,0.2381,0.2383,0,0,0,0,0,0,0.2206,0.221,0.2219,0.2221,0.2211,0.2228,0.2229,0.2226,0.2244,0.2246,0.2231,0.2231,0.226,0.2264,0.2267,0.2314,0.2278,0.2279,0.2281,0.238,0.2382,0.2383,0,0,0,0,0,0,0.2205,0.2206,0.2218,0.2217,0.222,0.2229,0.2226,0.2227,0.224,0.2247,0.2249,0.2243,0.226,0.2264,0.2293,0.2315,0.228,0.2282,0.2378,0.238,0.2382,0.2397,0,0,0,0,0,0,0.2205,0.2205,0.2211,0.2216,0.2219,0.2241,0.2227,0.2228,0.2243,0.2243,0.2258,0.226,0.226,0.229,0.2295,0.2317,0.2284,0.2376,0.2379,0.2382,0.2395,0.24,0.2404,0,0,0,0,0,0.2204,0.2214,0.2211,0.2212,0.2223,0.2242,0.2246,0.225,0.2245,0.2257,0.2266,0.226,0.2312,0.2293,0.2298,0.2321,0.2374,0.2378,0.2381,0.2393,0.2399,0.2404,0,0,0,0,0,0,0.2215,0.2215,0.2211,0.2221,0.2234,0.2242,0.2259,0.2258,0.2275,0.2277,0.2277,0.228,0.2316,0.2321,0.23,0.2362,0.2345,0.2349,0.2352,0.2357,0.2362,0.2366,0.2285,0,0,0,0,0,0.2219,0.2226,0.2229,0.2241,0.2248,0.2255,0.2266,0.2267,0.2279,0.2286,0.2292,0.231,0.2335,0.2347,0.2368,0.24,0.2421,0.2421,0.2426,0.2429,0.2439,0.2487,0.2496,0.2395,0.2395,0.2395,0,0,0.2226,0.2229,0.2233,0.2244,0.2255,0.2273,0.226,0.2281,0.2298,0.2289,0.2316,0.2327,0.2349,0.2383,0.24,0.2388,0.2473,0.2434,0.2437,0.2444,0.2491,0.2501,0.2509,0.2397,0.2397,0.2396,0,0,0.2245,0.2248,0.2259,0.2273,0.2291,0.2297,0.2304,0.2315,0.2323,0.2352,0.235,0.2373,0.2409,0.2422,0.2436,0.2483,0.2498,0.2495,0.2519,0.2565,0.2573,0.2581,0.2629,0.2641,0.2495,0.2495,0.2495,0,0.2256,0.2265,0.2269,0.2288,0.2302,0.2308,0.2327,0.2344,0.236,0.2375,0.2367,0.2425,0.243,0.2477,0.2487,0.2493,0.2525,0.249,0.257,0.2578,0.2585,0.2633,0.2646,0.2496,0.2496,0.2496,0.2496,0,0.2281,0.2293,0.2307,0.2326,0.2344,0.2366,0.2382,0.2403,0.2413,0.2426,0.2472,0.2482,0.252,0.2521,0.2517,0.2574,0.2583,0.257,0.255,0.2596,0.2644,0.2657,0.2498,0.2497,0.2497,0.2497,0,0,0.2283,0.2316,0.2319,0.2331,0.2365,0.2378,0.2419,0.2452,0.2485,0.2504,0.255,0.2575,0.2582,0.26,0.2598,0.2621,0.2692,0.2618,0.262,0.2657,0.2808,0.2725,0.2731,0.2694,0.2697,0.2698,0.2822,0,0.23,0.233,0.2346,0.238,0.2395,0.2422,0.2459,0.2493,0.2528,0.2577,0.2597,0.2644,0.2615,0.2638,0.2661,0.2695,0.2727,0.266,0.2766,0.2769,0.2682,0.2743,0.2507,0.259,0.2835,0.2837,0.2839,0,0.2311,0.233,0.2359,0.2398,0.2409,0.2442,0.2502,0.2534,0.2608,0.2638,0.2691,0.2717,0.2773,0.2734,0.2821,0.2785,0.2803,0.2812,0.2817,0.2743,0.271,0.2584,0.2604,0.2861,0.2859,0.2857,0.2856,0,0.229,0.2335,0.2355,0.2371,0.2421,0.2455,0.2492,0.256,0.2602,0.2691,0.2749,0.2807,0.2867,0.2895,0.2917,0.2889,0.3002,0.2971,0.2913,0.2908,0.2729,0.2704,0.3029,0.3029,0.3029,0.3029,0.3028,0,0.2284,0.2303,0.2356,0.2366,0.2409,0.2453,0.251,0.2562,0.2656,0.271,0.2787,0.2848,0.2912,0.2976,0.297,0.2989,0.3057,0.2935,0.2937,0.2728,0.2702,0.2947,0.2935,0.3033,0.3032,0.3031,0.303,0,0.2248,0.228,0.2309,0.2371,0.2396,0.2429,0.2519,0.2569,0.2668,0.2754,0.2793,0.2925,0.3005,0.3049,0.3111,0.3068,0.3078,0.3059,0.2809,0.2777,0.2945,0.2934,0.3033,0.3031,0.3029,0.3028,0.3027,0,0.2229,0.2242,0.2299,0.2323,0.2357,0.2413,0.2458,0.2559,0.2613,0.2775,0.2818,0.2955,0.2993,0.3078,0.3032,0.3031,0.3075,0.2803,0.2691,0.2955,0.2948,0.2939,0.293,0.2474,0.2469,0.2464,0.2461,0,0.2198,0.2223,0.2242,0.2284,0.2336,0.2369,0.2447,0.2483,0.2594,0.2676,0.2767,0.282,0.292,0.281,0.2827,0.2782,0.2782,0.2711,0.3074,0.2496,0.2435,0.2425,0.2434,0.242,0.2424,0.2427,0.2429,0.2431,0.2175,0.2181,0.2206,0.2235,0.2281,0.2297,0.2294,0.2369,0.2414,0.2476,0.2601,0.2603,0.2639,0.2545,0.2456,0.2398,0.2588,0.2454,0.2466,0.2483,0.2382,0.232,0.2267,0.227,0.2272,0.2275,0.2277,0,0.213,0.2138,0.216,0.2167,0.2161,0.2226,0.2257,0.2212,0.2198,0.2287,0.2318,0.2139,0.2084,0.2128,0.1978,0.1965,0.1924,0.1879,0.1804,0.1847,0.1885,0.175,0.1469,0.1466,0.1463,0.1461,0,0,0.2107,0.2087,0.2082,0.2029,0.2045,0.2,0.199,0.1943,0.1951,0.1877,0.1869,0.2013,0.2087,0.1764,0.1709,0.1565,0.1691,0.15,0.2155,0.2113,0.2147,0.2231,0.2074,0,0,0,0,0]},{"header":{"parameterUnit":"m.s-1","parameterCategory":2,"la1":30.2991,"la2":30.254,"lo1":-89.0895,"lo2":-89.0444,"dy":0.0017,"dx":0.0017,"nx":28,"ny":28,"refTime":"2024-05-21T03:00:00:Z","depth":"2","parameterNumber":3,"parameterNumberName":"V-component_of_CURRENTS"},"data":[0,0,0,0,0,0,0,0,0,0,0,0,0,0,0,0,0,0,0,0,0,0,0,0,0,0,0,0,0,0,0,0,0,0,0,0,0,0,0,0,0,0,0,0,0,0,0,0,0,0,0,0,0,0,0,0,0,0,0.0122,0.0122,0,0.0116,0.0115,0.0115,0.0092,0.0091,0.0091,0.0091,0.0045,0.0044,0.0043,0,0,0,0,0,0,0,0,0,0,0,0,0,0.0092,0.0093,0.0122,0.0122,0.0122,0.0116,0.0115,0.0115,0.0092,0.0091,0.0091,0.0091,0.0045,0.0044,0.0043,0,0,0,0,0,0,0,0,0,0,0,0,0,0.0096,0.0093,0.0122,0.0111,0.011,0.0116,0.0115,0.0115,0.0092,0.0091,0.0091,0.009,0.0046,0.0044,0.0043,0.0047,0,0,0.0039,0.0039,0,0,0,0,0,0,0,0,0.0096,0.0097,0.0112,0.0111,0.011,0.0105,0.0088,0.0091,0.0092,0.0097,0.0091,0.009,0.0063,0.006,0.0059,0.0045,0.0043,0.0039,0.0038,0.0038,0.0038,0,0,0,0,0,0,0,0.0096,0.0097,0.0118,0.0112,0.0111,0.0099,0.0099,0.0089,0.0082,0.0097,0.0095,0.0097,0.0062,0.006,0.0057,0.0042,0.0039,0.0038,0.0037,0.0037,0.0029,0.0029,0,0,0,0,0,0,0.0101,0.0097,0.0118,0.0118,0.0103,0.01,0.01,0.0106,0.0082,0.0079,0.0098,0.0096,0.0063,0.0059,0.0056,0.0067,0.0038,0.0037,0.0036,0.0028,0.0029,0.003,0,0,0,0,0,0,0.0101,0.0103,0.0118,0.0108,0.0109,0.0101,0.0109,0.0106,0.0106,0.0084,0.0079,0.01,0.0062,0.0058,0.0054,0.0065,0.0036,0.0035,0.0028,0.0028,0.0029,0.0085,0,0,0,0,0,0,0.01,0.0103,0.0108,0.0109,0.011,0.0129,0.0109,0.0107,0.0109,0.0107,0.0085,0.008,0.0061,0.0056,0.0053,0.0063,0.0034,0.0027,0.0028,0.0029,0.0082,0.0088,0.0092,0,0,0,0,0,0.0099,0.011,0.0109,0.0111,0.0118,0.013,0.013,0.0121,0.011,0.0117,0.0102,0.0081,0.006,0.0056,0.0052,0.0061,0.0026,0.0028,0.0029,0.008,0.0087,0.0092,0,0,0,0,0,0,0.0098,0.0109,0.0107,0.0121,0.0128,0.0127,0.0131,0.0126,0.012,0.0116,0.0091,0.0085,0.0085,0.0067,0.0063,0.0062,0.0039,0.0039,0.0079,0.0085,0.0089,0.0102,0.0033,0,0,0,0,0,0.0102,0.0114,0.0122,0.0133,0.0138,0.0136,0.0138,0.0136,0.0132,0.0128,0.0113,0.0096,0.0087,0.0082,0.0069,0.0072,0.005,0.0074,0.0078,0.0083,0.009,0.0071,0.0075,0.0034,0.0034,0.0034,0,0,0.0104,0.0112,0.0118,0.0134,0.0136,0.0153,0.0136,0.0146,0.0161,0.0124,0.0132,0.0112,0.0091,0.0094,0.0091,0.008,0.0082,0.0084,0.0088,0.0093,0.0073,0.0077,0.0081,0.0034,0.0034,0.0034,0,0,0.012,0.0123,0.0141,0.0152,0.0164,0.0167,0.0173,0.0177,0.0178,0.0188,0.0162,0.0152,0.014,0.0126,0.0119,0.0143,0.0107,0.0136,0.0171,0.0153,0.0157,0.0159,0.0132,0.0132,0.0139,0.0139,0.0139,0,0.0122,0.0148,0.0148,0.0169,0.0183,0.0176,0.0202,0.0205,0.0207,0.0212,0.0197,0.018,0.0157,0.0161,0.0167,0.0154,0.0135,0.0152,0.016,0.0162,0.0164,0.0136,0.0135,0.0142,0.0141,0.0141,0.0141,0,0.0157,0.0175,0.0187,0.0214,0.0227,0.0248,0.0257,0.0266,0.0265,0.0265,0.0268,0.0241,0.023,0.0219,0.0201,0.0205,0.0184,0.0168,0.0147,0.0172,0.014,0.0138,0.0146,0.0145,0.0144,0.0143,0,0,0.0175,0.0206,0.0212,0.0234,0.0255,0.0274,0.0297,0.0321,0.0342,0.033,0.0352,0.0327,0.0306,0.0296,0.0267,0.025,0.024,0.0219,0.0217,0.0195,0.0195,0.016,0.0154,0.0227,0.0227,0.0227,0.0166,0,0.0206,0.0254,0.0261,0.0309,0.0337,0.034,0.0367,0.0382,0.0389,0.0405,0.0377,0.0385,0.0338,0.0338,0.0312,0.0263,0.0238,0.0257,0.0172,0.0169,0.0137,0.0152,0.0179,0.0127,0.0164,0.0164,0.0164,0,0.0246,0.0274,0.0327,0.0368,0.0381,0.0409,0.0453,0.0475,0.0488,0.0491,0.0483,0.0461,0.0439,0.0398,0.0321,0.0336,0.0271,0.0225,0.0221,0.0169,0.0131,0.0108,0.0121,0.016,0.016,0.016,0.0161,0,0.0277,0.0324,0.0369,0.0385,0.0427,0.0455,0.048,0.0504,0.0543,0.055,0.058,0.0529,0.0533,0.0442,0.0342,0.0335,0.0252,0.0228,0.0131,0.0127,0.0124,0.012,0.017,0.017,0.017,0.0171,0.0171,0,0.0317,0.0353,0.0391,0.042,0.0482,0.0496,0.0563,0.0577,0.062,0.0678,0.0632,0.0668,0.0548,0.0488,0.0369,0.0246,0.0269,0.014,0.0113,0.0143,0.0141,0.015,0.0149,0.0168,0.0169,0.0169,0.017,0,0.0346,0.0369,0.0426,0.0478,0.0502,0.0549,0.063,0.0683,0.0711,0.0789,0.0802,0.0784,0.0701,0.056,0.0417,0.0301,0.0169,0.0116,0.0152,0.013,0.0046,0.0048,0.0004,0.0002,0.0001,-0.0,-0.0001,0,0.0365,0.0399,0.047,0.0515,0.0546,0.0617,0.0678,0.0725,0.0791,0.0865,0.0915,0.087,0.0847,0.0615,0.0399,0.0179,0.0152,0.0052,0.0037,0.0053,0.0031,0.0035,0.0039,0.0053,0.0053,0.0052,0.0052,0,0.0403,0.0428,0.0475,0.0565,0.0639,0.0719,0.0809,0.0877,0.0945,0.1017,0.1084,0.1071,0.0873,0.0666,0.0367,0.0217,0.0085,0.0036,0.0055,0.0088,0.0093,0.0073,0.0077,0.0048,0.0049,0.0049,0.0049,0.0049,0.0432,0.047,0.0534,0.0619,0.0703,0.0807,0.0887,0.0989,0.1098,0.1203,0.1184,0.1172,0.0948,0.0572,0.0319,0.0056,0.0067,-0.003,-0.0026,-0.0023,-0.0009,-0.0007,-0.0068,-0.0068,-0.0069,-0.0069,-0.0069,0,0.0466,0.0511,0.0588,0.0684,0.0772,0.0821,0.0966,0.1043,0.1175,0.1266,0.1307,0.1086,0.0869,0.0606,0.0228,-0.0008,-0.0014,-0.0093,-0.0038,-0.0033,-0.0029,-0.0014,-0.0076,-0.0077,-0.0077,-0.0078,0,0,0.0488,0.0554,0.0588,0.0719,0.0797,0.0924,0.1014,0.1133,0.1222,0.1294,0.1302,0.1265,0.0959,0.0677,0.0365,0.0151,0.011,0.0101,0.0132,0.0239,0.0246,0.0032,0.0064,0,0,0,0,0]}],[{"header":{"parameterUnit":"m.s-1","parameterCategory":2,"la1":30.2991,"la2":30.254,"lo1":-89.0895,"lo2":-89.0444,"dy":0.0017,"dx":0.0017,"nx":28,"ny":28,"refTime":"2024-05-21T03:00:00:Z","depth":"4","parameterNumber":2,"parameterNumberName":"U-component_of_CURRENTS"},"data":[0,0,0,0,0,0,0,0,0,0,0,0,0,0,0,0,0,0,0,0,0,0,0,0,0,0,0,0,0,0,0,0,0,0,0,0,0,0,0,0,0,0,0,0,0,0,0,0,0,0,0,0,0,0,0,0,0,0,0.1437,0.1438,0,0.1498,0.1499,0.15,0.1551,0.1552,0.1552,0.1553,0.1576,0.1576,0.1576,0,0,0,0,0,0,0,0,0,0,0,0,0,0.1385,0.1386,0.1437,0.1438,0.1439,0.1498,0.1499,0.15,0.1551,0.1552,0.1552,0.1553,0.1576,0.1576,0.1576,0,0,0,0,0,0,0,0,0,0,0,0,0,0.1422,0.1386,0.1437,0.1472,0.1476,0.1498,0.1499,0.15,0.1551,0.1552,0.1553,0.1553,0.1576,0.1576,0.1576,0.1557,0,0,0.1577,0.1577,0,0,0,0,0,0,0,0,0.142,0.1424,0.1466,0.147,0.1474,0.1519,0.1489,0.1518,0.155,0.1521,0.1553,0.1554,0.1553,0.1555,0.1564,0.1559,0.156,0.1577,0.1577,0.1577,0.1577,0,0,0,0,0,0,0,0.1417,0.1422,0.146,0.1467,0.1472,0.1492,0.1498,0.1495,0.153,0.1524,0.1528,0.1536,0.1555,0.1564,0.1565,0.156,0.1577,0.1577,0.1577,0.1577,0.1639,0.1641,0,0,0,0,0,0,0.1409,0.1419,0.1459,0.1462,0.145,0.1492,0.1499,0.1503,0.1531,0.1537,0.1535,0.1538,0.1563,0.1565,0.1566,0.1635,0.1577,0.1577,0.1577,0.1638,0.164,0.1641,0,0,0,0,0,0,0.1408,0.1412,0.1456,0.1443,0.145,0.1492,0.1496,0.1503,0.1544,0.154,0.1545,0.1572,0.1564,0.1566,0.1602,0.1633,0.1577,0.1577,0.1636,0.1638,0.1641,0.1715,0,0,0,0,0,0,0.1406,0.1411,0.1427,0.1442,0.1451,0.1487,0.1495,0.1504,0.1546,0.1551,0.1572,0.1574,0.1565,0.1603,0.1603,0.1632,0.1577,0.1634,0.1637,0.164,0.171,0.1719,0.1727,0,0,0,0,0,0.1404,0.1413,0.1427,0.1433,0.1466,0.1488,0.1495,0.1527,0.1547,0.1567,0.1593,0.1575,0.1622,0.1604,0.1604,0.1633,0.1632,0.1636,0.164,0.1706,0.1717,0.1727,0,0,0,0,0,0,0.1403,0.142,0.1435,0.1452,0.1479,0.1498,0.1522,0.1544,0.1581,0.1595,0.1595,0.1598,0.1643,0.1628,0.1608,0.1661,0.1624,0.1628,0.1675,0.1685,0.1693,0.1693,0.1577,0,0,0,0,0,0.1407,0.142,0.1442,0.1461,0.1475,0.1506,0.1526,0.1548,0.1575,0.1594,0.161,0.1629,0.1651,0.1662,0.1673,0.1697,0.1692,0.1717,0.1725,0.1732,0.1733,0.1766,0.1777,0.1654,0.1653,0.1653,0,0,0.1413,0.1425,0.1435,0.1462,0.1486,0.1511,0.1521,0.1559,0.1591,0.1588,0.1644,0.1661,0.1666,0.1704,0.1721,0.1698,0.1767,0.1737,0.1743,0.174,0.1771,0.1783,0.1793,0.1656,0.1656,0.1655,0,0,0.1416,0.1442,0.1451,0.1475,0.1514,0.1536,0.1553,0.159,0.1624,0.1673,0.1686,0.1727,0.1752,0.1767,0.1775,0.1834,0.1815,0.1839,0.1878,0.1911,0.1921,0.193,0.1945,0.1954,0.1839,0.1839,0.1839,0,0.1427,0.1439,0.1461,0.1479,0.1505,0.155,0.1574,0.1611,0.1661,0.1691,0.1703,0.1773,0.1782,0.1827,0.1857,0.1854,0.1864,0.1839,0.1922,0.193,0.1938,0.1951,0.1961,0.1843,0.1843,0.1842,0.1842,0,0.1426,0.1455,0.1466,0.1503,0.1535,0.1566,0.1614,0.1662,0.1712,0.1747,0.1819,0.1844,0.1884,0.1898,0.19,0.1961,0.1948,0.1933,0.1894,0.1955,0.1965,0.1974,0.1849,0.1848,0.1846,0.1845,0,0,0.1405,0.1455,0.1464,0.1489,0.1554,0.1575,0.1643,0.1706,0.1755,0.1819,0.1879,0.1937,0.1963,0.1974,0.1984,0.2014,0.2088,0.2005,0.2005,0.2018,0.2156,0.201,0.2005,0.2093,0.2095,0.2097,0.2142,0,0.1406,0.1436,0.1467,0.1519,0.1543,0.1608,0.1662,0.173,0.1797,0.1865,0.192,0.1981,0.1987,0.202,0.2057,0.2083,0.2114,0.2076,0.2097,0.2097,0.1958,0.2011,0.2102,0.2149,0.2151,0.2152,0.2153,0,0.1392,0.142,0.1461,0.1529,0.1547,0.1592,0.169,0.1743,0.1847,0.1901,0.1978,0.2021,0.2097,0.2088,0.2166,0.2146,0.2162,0.2173,0.2174,0.2014,0.1966,0.2074,0.2168,0.2167,0.2166,0.2165,0.2164,0,0.1355,0.1416,0.1451,0.1475,0.1557,0.1604,0.1662,0.1762,0.1815,0.1934,0.1988,0.2074,0.2134,0.2174,0.2214,0.2204,0.228,0.2262,0.2141,0.2131,0.2216,0.2206,0.2311,0.2311,0.2311,0.2311,0.2311,0,0.1329,0.1363,0.1443,0.1463,0.152,0.1588,0.1664,0.1737,0.184,0.19,0.2007,0.2059,0.2165,0.2218,0.2235,0.221,0.23,0.2152,0.2135,0.2246,0.2239,0.2222,0.2211,0.2313,0.2312,0.2312,0.2312,0,0.1279,0.133,0.1375,0.1467,0.1503,0.1546,0.166,0.1703,0.182,0.1903,0.1948,0.2079,0.215,0.2215,0.2283,0.2223,0.2219,0.2185,0.2302,0.229,0.2045,0.2038,0.2054,0.2049,0.2045,0.2042,0.2039,0,0.1249,0.1268,0.1365,0.1393,0.1442,0.1519,0.1566,0.1686,0.1734,0.1891,0.1916,0.2037,0.2108,0.2085,0.2165,0.2173,0.215,0.2125,0.2082,0.2038,0.2021,0.2019,0.2018,0.2033,0.2032,0.203,0.2029,0,0.1194,0.124,0.1278,0.1334,0.1388,0.1431,0.1514,0.1536,0.1667,0.1793,0.1844,0.1882,0.1954,0.2002,0.2021,0.2024,0.2126,0.2082,0.209,0.205,0.2012,0.1999,0.2002,0.2016,0.2018,0.2019,0.202,0,0.1155,0.1165,0.1218,0.1254,0.1313,0.1317,0.1373,0.1428,0.1488,0.1666,0.1681,0.1809,0.1936,0.1924,0.1941,0.1932,0.1906,0.1834,0.1854,0.1871,0.1788,0.1711,0.1609,0,0,0,0,0,0.1107,0.1104,0.113,0.1152,0.1201,0.1232,0.1322,0.138,0.1515,0.1507,0.159,0.1648,0.1689,0.1757,0.1713,0.1854,0.1906,0.1791,0.183,0.1938,0.1954,0.1873,0,0,0,0,0,0,0.1071,0.1096,0.1095,0.1055,0.1053,0.1086,0.1135,0.1224,0.1232,0.1386,0.1423,0.1542,0.1613,0.1702,0.1682,0.1699,0.1686,0.1877,0.1872,0.1929,0.1944,0.1957,0.1878,0,0,0,0,0]},{"header":{"parameterUnit":"m.s-1","parameterCategory":2,"la1":30.2991,"la2":30.254,"lo1":-89.0895,"lo2":-89.0444,"dy":0.0017,"dx":0.0017,"nx":28,"ny":28,"refTime":"2024-05-21T03:00:00:Z","depth":"4","parameterNumber":3,"parameterNumberName":"V-component_of_CURRENTS"},"data":[0,0,0,0,0,0,0,0,0,0,0,0,0,0,0,0,0,0,0,0,0,0,0,0,0,0,0,0,0,0,0,0,0,0,0,0,0,0,0,0,0,0,0,0,0,0,0,0,0,0,0,0,0,0,0,0,0,0,0.0088,0.0088,0,0.0089,0.0089,0.0089,0.0074,0.0073,0.0073,0.0073,0.0045,0.0044,0.0044,0,0,0,0,0,0,0,0,0,0,0,0,0,0.0058,0.0059,0.0088,0.0088,0.0088,0.0089,0.0089,0.0089,0.0074,0.0073,0.0073,0.0072,0.0045,0.0044,0.0044,0,0,0,0,0,0,0,0,0,0,0,0,0,0.0066,0.0059,0.0088,0.0081,0.008,0.0089,0.0089,0.0089,0.0074,0.0073,0.0073,0.0072,0.0045,0.0044,0.0044,0.0051,0,0,0.0042,0.0042,0,0,0,0,0,0,0,0,0.0065,0.0067,0.0082,0.0081,0.0081,0.0081,0.0068,0.0075,0.0074,0.0076,0.0073,0.0072,0.0055,0.0054,0.0054,0.0049,0.0048,0.0042,0.0041,0.0041,0.0041,0,0,0,0,0,0,0,0.0065,0.0066,0.0087,0.0082,0.0081,0.0073,0.0074,0.007,0.0067,0.0075,0.0074,0.0076,0.0054,0.0055,0.0054,0.0048,0.0042,0.0041,0.0041,0.0041,0.0047,0.0047,0,0,0,0,0,0,0.0068,0.0066,0.0087,0.0088,0.0072,0.0074,0.0075,0.0081,0.0068,0.0066,0.0076,0.0075,0.0056,0.0054,0.0052,0.0064,0.0041,0.004,0.004,0.0046,0.0047,0.0047,0,0,0,0,0,0,0.0067,0.007,0.0087,0.0077,0.0079,0.0076,0.0083,0.0081,0.0083,0.0069,0.0066,0.008,0.0056,0.0053,0.0054,0.0063,0.004,0.004,0.0045,0.0046,0.0047,0.0085,0,0,0,0,0,0,0.0066,0.007,0.0075,0.0078,0.008,0.0098,0.0083,0.0082,0.0086,0.0084,0.0071,0.0068,0.0055,0.0056,0.0054,0.0061,0.0039,0.0045,0.0046,0.0047,0.0083,0.0087,0.009,0,0,0,0,0,0.0065,0.0076,0.0075,0.0077,0.0087,0.0099,0.01,0.0094,0.0086,0.0093,0.0084,0.0068,0.006,0.0056,0.0054,0.0061,0.0044,0.0045,0.0047,0.0081,0.0086,0.009,0,0,0,0,0,0,0.0064,0.0076,0.0074,0.0088,0.0095,0.0097,0.0102,0.0099,0.0098,0.0094,0.0077,0.0074,0.0078,0.0066,0.0061,0.0066,0.0049,0.005,0.0076,0.008,0.0084,0.0089,0.0039,0,0,0,0,0,0.0068,0.008,0.0087,0.0098,0.0103,0.0103,0.0107,0.0106,0.0105,0.0104,0.0095,0.0085,0.0082,0.0078,0.0073,0.0077,0.0053,0.008,0.0084,0.0087,0.009,0.0066,0.0068,0.0051,0.0051,0.0051,0,0,0.0071,0.0078,0.0085,0.0099,0.0103,0.0116,0.0104,0.0115,0.0126,0.0101,0.0111,0.0099,0.0086,0.0091,0.0091,0.0082,0.0077,0.0088,0.0091,0.0093,0.0067,0.0069,0.007,0.0052,0.0052,0.0052,0,0,0.0085,0.009,0.0105,0.0114,0.0125,0.0128,0.0133,0.0138,0.0141,0.0152,0.0135,0.0129,0.0126,0.0116,0.0112,0.0132,0.0098,0.013,0.0152,0.0129,0.013,0.013,0.0094,0.0091,0.013,0.0131,0.0131,0,0.0087,0.0108,0.0111,0.0127,0.0138,0.0135,0.0154,0.016,0.0164,0.0167,0.0161,0.0151,0.0139,0.014,0.0147,0.014,0.0117,0.0136,0.0133,0.0133,0.0133,0.0095,0.0091,0.0133,0.0132,0.0132,0.0132,0,0.0114,0.0129,0.0139,0.016,0.0171,0.0188,0.0197,0.0205,0.0207,0.0207,0.0211,0.0196,0.0188,0.0183,0.0173,0.0169,0.0148,0.014,0.0121,0.0137,0.0096,0.0091,0.0135,0.0135,0.0134,0.0134,0,0,0.0125,0.0153,0.0157,0.0173,0.0191,0.0205,0.0224,0.0241,0.0252,0.0251,0.026,0.0253,0.0237,0.0231,0.0212,0.0194,0.017,0.017,0.0168,0.0133,0.0106,0.0092,0.0086,0.0161,0.016,0.016,0.0075,0,0.0146,0.0182,0.0191,0.0225,0.0245,0.025,0.027,0.0282,0.0286,0.0293,0.0276,0.0279,0.0258,0.0254,0.0233,0.0188,0.0161,0.0193,0.0098,0.0095,0.008,0.0081,0.0159,0.0071,0.007,0.0069,0.0069,0,0.0171,0.0193,0.023,0.0262,0.0271,0.0291,0.0318,0.0337,0.0341,0.0342,0.0335,0.0318,0.0296,0.0277,0.0203,0.0224,0.017,0.0131,0.0126,0.0098,0.0073,0.0054,0.006,0.006,0.0061,0.0062,0.0062,0,0.0184,0.0221,0.0253,0.0264,0.0298,0.0316,0.0336,0.035,0.0374,0.0373,0.0382,0.0346,0.0335,0.0268,0.019,0.0195,0.0099,0.0094,0.0025,0.0023,0.0043,0.0044,0.0037,0.0037,0.0037,0.0037,0.0038,0,0.0205,0.023,0.0262,0.0281,0.0322,0.0338,0.038,0.039,0.0412,0.0443,0.041,0.0417,0.0335,0.0274,0.0193,0.0093,0.0097,0.0027,0.0003,0.006,0.0063,0.0039,0.004,0.0034,0.0035,0.0035,0.0036,0,0.0213,0.0234,0.0273,0.0313,0.0331,0.0362,0.0419,0.0448,0.0461,0.0498,0.0502,0.0468,0.039,0.0289,0.0173,0.0103,0.0003,-0.0037,0.002,0.0001,-0.0062,-0.0057,-0.0119,-0.012,-0.0121,-0.0122,-0.0122,0,0.0219,0.0241,0.0296,0.0327,0.0349,0.0399,0.0438,0.0472,0.0509,0.0533,0.0552,0.0492,0.0454,0.0277,0.0163,-0.0009,-0.0028,-0.0092,-0.0064,-0.0059,-0.0076,-0.007,-0.0065,-0.0124,-0.0124,-0.0124,-0.0125,0,0.023,0.025,0.0285,0.0348,0.0396,0.0453,0.0512,0.0542,0.0586,0.0596,0.0598,0.0516,0.0423,0.0286,0.0145,0.0027,-0.0055,-0.0102,-0.01,-0.0075,-0.0066,-0.0081,-0.0074,-0.0128,-0.0127,-0.0127,-0.0127,0,0.0239,0.0262,0.031,0.0368,0.043,0.0493,0.0523,0.0572,0.0608,0.0637,0.0633,0.0539,0.0487,0.0303,0.0177,0.0053,0.0028,-0.001,-0.0013,-0.0011,0.0047,0.0075,0.0036,0,0,0,0,0,0.0247,0.0278,0.0329,0.0396,0.0458,0.0498,0.0569,0.0596,0.0638,0.0648,0.0646,0.0563,0.0393,0.0318,0.0193,0.0145,-0.0009,-0.0008,-0.0058,-0.0146,-0.0142,-0.0093,0,0,0,0,0,0,0.0253,0.0299,0.0326,0.041,0.046,0.0533,0.058,0.0609,0.0618,0.0639,0.0552,0.0523,0.0354,0.0464,0.0188,0.0151,0.01,-0.0084,-0.0087,-0.0148,-0.0145,-0.0142,-0.009,0,0,0,0,0]}]]